Hourly Data Report for October 03, 2016

All times are specified in Local Standard Time (LST). Add 1 hour to adjust for Daylight Saving Time where and when it is observed.

EUREKA CLIMATE
NUNAVUT

79°59'21.000" N
85°56'02.000" W
10.00 m
2401199
71613
NEK

Download Data

Hourly Data (October 2016)
Hourly Data Report for October 3, 2016
Temp Definition
°C
Dew Point Temp Definition
°C
Rel Hum Definition
%
Wind Dir Definition
10's deg

Wind Spd Definition
km/h
Visibility Definition
km
Stn Press Definition
kPa
Hmdx Definition


Wind Chill Definition


Weather Definition


TIME
00:00 -7.6 -8.4 94 33 14   100.59   -14 LegendNANA
01:00 -7.6 -8.5 93 33 7   100.59   -11 LegendNANA
02:00 -8.3 -9.4 92 2 11   100.60   -14 LegendNANA
03:00 -9.7 -10.6 93 36 15   100.58   -16 LegendNANA
04:00 -9.4 -10.9 89 35 19   100.58   -17 LegendNANA
05:00 -10.0 -10.9 93 35 19   100.57   -18 LegendNANA
06:00 -9.2 -11.0 87 33 17   100.56   -16 LegendNANA
07:00 -9.7 -11.7 85 34 14   100.55   -16 LegendNANA
08:00 -11.9 -13.7 87 1 8   100.53   -17 LegendNANA
09:00 -10.9 -13.1 84 32 5   100.52   -14 LegendNANA
10:00
11:00
12:00 -10.2 -10.8 96 27 1   100.47   -11 LegendNANA
13:00 -11.7 -12.3 95 12 6   100.46   -15 LegendNANA
14:00 -11.9 -12.6 94 9 4   100.44   -14 LegendNANA
15:00 -11.8 -12.5 94 5 4   100.43   -14 LegendNANA
16:00 -11.0 -11.7 95 11 4   100.41   -13 LegendNANA
17:00 -11.1 -11.8 95 10 5   100.38   -14 LegendNANA
18:00 -11.4 -12.1 95 11 7   100.36   -16 LegendNANA
19:00 -11.9 -12.7 94 11 8   100.34   -17 LegendNANA
20:00 -13.3 -14.2 93 14 8   100.34   -18 LegendNANA
21:00 -14.4 -15.5 92 11 3   100.33   -17 LegendNANA
22:00 -16.1 -17.3 91 10 3   100.32   -18 LegendNANA
23:00 -16.9 -18.2 90 9 2   100.30   -18 LegendNANA

Notes on Data Quality.

Legend

  • E = Estimated
  • M = Missing
  • NA = Not Available
  • ‡ = Partner data that is not subject to review by the National Climate Archives
Date modified: